Johnstown, PA

9:14 PM EST on February 09, 2016 (GMT -0500)
Johnstown-Cambria County

Weather History for KJST - March, 2013

Change the Weather History Date:

Friday, March 8, 2013

  Actual Average Record
Temperature  
Mean Temperature 30 °F 33 °F  
Max Temperature 35 °F 40 °F 78 °F (1921)
Min Temperature 25 °F 25 °F 3 °F (1999)
Degree Days  
Heating Degree Days 35 32  
Month to date heating degree days 268  
Since 1 July heating degree days 5147  
Cooling Degree Days 0 0  
Month to date cooling degree days 0  
Year to date cooling degree days 0  
Moisture  
Dew Point 22 °F    
Average Humidity 77    
Maximum Humidity 88    
Minimum Humidity 59    
Precipitation  
Precipitation 0.00 in 0.09 in 1.06 in (1941)
Month to date precipitation 0.63  
Year to date precipitation 5.86  
Sea Level Pressure  
Sea Level Pressure 30.26 in    
Wind  
Wind Speed 16 mph (NW)    
Max Wind Speed 21 mph    
Max Gust Speed 29 mph    
Visibility 9 miles    
Events Snow    
T = Trace of Precipitation, MM = Missing Value Source: NWS Daily Summary

Daily Weather History Graph

Daily Weather History Graph

Search for Another Location

Airport or City:

Trip Planner

Search our weather history database for the weather conditions in past years. The results will help you decide how hot, cold, wet, or windy it might be!

Date:

Astronomy

Mar. 08, 2013 Rise Set
Actual Time 6:37 AM EST 6:14 PM EST
Civil Twilight 6:10 AM EST 6:42 PM EST
Nautical Twilight 5:39 AM EST 7:13 PM EST
Astronomical Twilight 5:07 AM EST 7:45 PM EST
Moon 4:21 AM EST (3/8) 3:07 PM EST (3/8)
Length of Visible Light 12h 31m
Length of Day
11h 37m
Waning Crescent, 12% of the Moon is Illuminated
Mar 8
Waning Crescent
Mar 11
New
Mar 19
First Quarter
Mar 27
Full
Apr 3
Last Quarter

Hourly Weather History & Observations

Time (EST) Temp. Windchill Dew Point Humidity Pressure Visibility Wind Dir Wind Speed Gust Speed Precip Events Conditions
12:17 AM 26.6 °F 14.3 °F 23.0 °F 86% 30.14 in 10.0 mi WNW 16.1 mph - N/A   Overcast
12:41 AM 26.6 °F 13.4 °F 23.0 °F 86% 30.14 in 10.0 mi WNW 18.4 mph - N/A   Overcast
12:54 AM 27.0 °F 15.2 °F 23.0 °F 85% 30.22 in 10.0 mi WNW 15.0 mph - N/A   Overcast
1:54 AM 27.0 °F 15.2 °F 23.0 °F 85% 30.21 in 10.0 mi NW 15.0 mph - N/A   Overcast
2:54 AM 27.0 °F 13.5 °F 23.0 °F 85% 30.21 in 10.0 mi NW 19.6 mph 24.2 mph N/A   Overcast
3:12 AM 26.6 °F 13.4 °F 23.0 °F 86% 30.13 in 10.0 mi NW 18.4 mph 23.0 mph N/A   Overcast
3:24 AM 26.6 °F 13.8 °F 21.2 °F 80% 30.13 in 9.0 mi NW 17.3 mph 26.5 mph N/A   Overcast
3:54 AM 27.0 °F 15.6 °F 21.9 °F 81% 30.22 in 10.0 mi NW 13.8 mph - N/A   Overcast
4:54 AM 26.1 °F 13.6 °F 21.9 °F 84% 30.23 in 10.0 mi NW 16.1 mph - 0.00 in   Overcast
5:50 AM 26.6 °F 13.4 °F 21.2 °F 80% 30.16 in 6.0 mi NW 18.4 mph 24.2 mph 0.00 in Snow Light Snow
5:54 AM 26.1 °F 13.1 °F 21.9 °F 84% 30.25 in 7.0 mi NW 17.3 mph 24.2 mph 0.00 in Snow Light Snow
6:47 AM 26.6 °F 15.2 °F 21.2 °F 80% 30.19 in 2.5 mi NW 13.8 mph - 0.00 in Snow Light Snow
6:54 AM 26.1 °F 13.1 °F 21.9 °F 84% 30.28 in 1.8 mi NW 17.3 mph 21.9 mph 0.00 in Snow Light Snow
7:24 AM 26.6 °F 13.4 °F 21.2 °F 80% 30.20 in 1.5 mi NW 18.4 mph 27.6 mph 0.00 in Snow Light Snow
7:36 AM 26.6 °F 13.8 °F 21.2 °F 80% 30.20 in 3.0 mi NW 17.3 mph 25.3 mph 0.00 in Snow Light Snow
7:54 AM 26.1 °F 14.0 °F 21.9 °F 84% 30.29 in 6.0 mi NW 15.0 mph - 0.00 in Snow Light Snow
7:57 AM 26.6 °F 14.3 °F 21.2 °F 80% 30.20 in 7.0 mi NW 16.1 mph - 0.00 in   Overcast
8:34 AM 26.6 °F 14.3 °F 21.2 °F 80% 30.21 in 10.0 mi NNW 16.1 mph 27.6 mph 0.00 in   Overcast
8:54 AM 27.0 °F 15.2 °F 21.0 °F 78% 30.30 in 10.0 mi NNW 15.0 mph 28.8 mph 0.00 in   Overcast
9:54 AM 27.0 °F 14.3 °F 21.0 °F 78% 30.31 in 10.0 mi NNW 17.3 mph 23.0 mph 0.00 in   Overcast
10:54 AM 28.0 °F 16.5 °F 21.0 °F 75% 30.32 in 10.0 mi NNW 15.0 mph 23.0 mph N/A   Overcast
11:54 AM 30.0 °F 18.3 °F 21.0 °F 69% 30.31 in 10.0 mi NNW 17.3 mph 27.6 mph N/A   Overcast
12:54 PM 30.9 °F 18.4 °F 21.9 °F 69% 30.30 in 10.0 mi NW 20.7 mph 27.6 mph N/A   Overcast
1:54 PM 32.0 °F 20.5 °F 21.9 °F 66% 30.29 in 10.0 mi NW 18.4 mph - N/A   Mostly Cloudy
2:11 PM 32.0 °F 20.8 °F 21.2 °F 64% 30.21 in 10.0 mi NW 17.3 mph 26.5 mph N/A   Scattered Clouds
2:19 PM 32.0 °F 21.6 °F 21.2 °F 64% 30.21 in 10.0 mi WNW 15.0 mph 25.3 mph N/A   Mostly Cloudy
2:54 PM 33.1 °F 23.4 °F 21.9 °F 64% 30.29 in 10.0 mi WNW 13.8 mph 21.9 mph N/A   Mostly Cloudy
3:16 PM 33.8 °F 22.8 °F 21.2 °F 60% 30.22 in 10.0 mi WNW 18.4 mph 23.0 mph N/A   Scattered Clouds
3:54 PM 35.1 °F 26.9 °F 21.9 °F 59% 30.30 in 10.0 mi WNW 11.5 mph - N/A   Clear
4:54 PM 34.0 °F 24.6 °F 23.0 °F 64% 30.31 in 10.0 mi WNW 13.8 mph - N/A   Clear
5:54 PM 33.1 °F 24.9 °F 23.0 °F 66% 30.33 in 10.0 mi WNW 10.4 mph - N/A   Clear
6:54 PM 30.9 °F 22.8 °F 21.9 °F 69% 30.35 in 10.0 mi West 9.2 mph - N/A   Clear
7:54 PM 28.9 °F 21.9 °F 21.9 °F 75% 30.38 in 10.0 mi West 6.9 mph - N/A   Clear
8:54 PM 28.0 °F 20.8 °F 21.9 °F 78% 30.39 in 10.0 mi West 6.9 mph - N/A   Clear
9:54 PM 27.0 °F 21.6 °F 21.9 °F 81% 30.39 in 10.0 mi West 4.6 mph - N/A   Clear
10:54 PM 25.0 °F 18.1 °F 21.9 °F 88% 30.38 in 10.0 mi WNW 5.8 mph - N/A   Clear
11:54 PM 25.0 °F 16.3 °F 21.0 °F 85% 30.38 in 10.0 mi WNW 8.1 mph - N/A   Clear